TimeMST,TemperatureF,Dew PointF,Humidity,Sea Level PressureIn,VisibilityMPH,Wind Direction,Wind SpeedMPH,Gust SpeedMPH,PrecipitationIn,Events,Conditions,WindDirDegrees,DateUTC
12:55 AM,10.9,8.1,88,29.86,10.0,Calm,Calm,-,N/A,,Clear,0,2013-02-23 07:55:00
1:47 AM,12.2,10.4,92,29.75,1.8,Calm,Calm,-,N/A,,Clear,0,2013-02-23 08:47:00
1:55 AM,12.0,10.0,92,29.84,0.8,Calm,Calm,-,N/A,,Clear,0,2013-02-23 08:55:00
2:07 AM,10.4,8.6,92,29.75,6.0,Calm,Calm,-,N/A,,Clear,0,2013-02-23 09:07:00
2:26 AM,12.2,10.4,92,29.74,2.5,Calm,Calm,-,N/A,,Clear,0,2013-02-23 09:26:00
2:39 AM,12.2,10.4,92,29.73,0.8,Calm,Calm,-,N/A,,Clear,0,2013-02-23 09:39:00
2:55 AM,12.9,10.0,88,29.81,0.2,Calm,Calm,-,N/A,Fog,Light Freezing Fog,0,2013-02-23 09:55:00
3:03 AM,12.2,10.4,92,29.72,0.5,Calm,Calm,-,N/A,Fog,Light Freezing Fog,0,2013-02-23 10:03:00
3:27 AM,10.4,8.6,92,29.72,1.2,Calm,Calm,-,N/A,,Clear,0,2013-02-23 10:27:00
3:52 AM,10.4,8.6,92,29.71,0.8,Calm,Calm,-,N/A,,Clear,0,2013-02-23 10:52:00
3:55 AM,10.9,9.0,92,29.80,0.8,Calm,Calm,-,N/A,,Mist,0,2013-02-23 10:55:00
4:29 AM,8.6,6.8,92,29.71,0.2,Calm,Calm,-,N/A,Fog,Light Freezing Fog,0,2013-02-23 11:29:00
4:41 AM,8.6,5.0,85,29.71,0.5,Calm,Calm,-,N/A,Fog,Light Freezing Fog,0,2013-02-23 11:41:00
4:55 AM,8.1,6.1,92,29.80,0.2,Calm,Calm,-,N/A,Fog,Light Freezing Fog,0,2013-02-23 11:55:00
5:43 AM,8.6,5.0,85,29.71,1.2,Calm,Calm,-,N/A,,Partly Cloudy,0,2013-02-23 12:43:00
5:47 AM,6.8,3.2,85,29.71,3.0,Calm,Calm,-,N/A,,Clear,0,2013-02-23 12:47:00
5:55 AM,6.1,3.0,87,29.81,9.0,Calm,Calm,-,N/A,,Clear,0,2013-02-23 12:55:00
6:55 AM,7.0,3.9,87,29.81,1.2,Calm,Calm,-,N/A,,Clear,0,2013-02-23 13:55:00
7:16 AM,8.6,6.8,92,29.70,0.5,Calm,Calm,-,N/A,Fog,Light Freezing Fog,0,2013-02-23 14:16:00
7:24 AM,8.6,6.8,92,29.70,2.5,East,3.5,-,N/A,,Clear,100,2013-02-23 14:24:00
7:31 AM,8.6,6.8,92,29.70,6.0,Calm,Calm,-,N/A,,Partly Cloudy,0,2013-02-23 14:31:00
7:55 AM,10.9,10.0,96,29.81,9.0,Calm,Calm,-,N/A,,Partly Cloudy,0,2013-02-23 14:55:00
8:55 AM,16.0,14.0,92,29.80,10.0,Calm,Calm,-,N/A,,Clear,0,2013-02-23 15:55:00
9:55 AM,23.0,18.0,81,29.80,10.0,Calm,Calm,-,N/A,,Clear,0,2013-02-23 16:55:00
10:55 AM,27.0,19.0,72,29.78,10.0,East,3.5,-,N/A,,Clear,80,2013-02-23 17:55:00
11:55 AM,32.0,23.0,69,29.77,10.0,East,4.6,-,N/A,,Clear,80,2013-02-23 18:55:00
12:55 PM,35.1,21.9,59,29.75,10.0,East,3.5,-,N/A,,Clear,80,2013-02-23 19:55:00
1:55 PM,37.0,23.0,57,29.72,10.0,East,5.8,-,N/A,,Clear,100,2013-02-23 20:55:00
2:55 PM,36.0,24.1,62,29.73,10.0,East,5.8,-,N/A,,Clear,100,2013-02-23 21:55:00
3:55 PM,35.1,23.0,61,29.75,10.0,ESE,5.8,-,N/A,,Clear,110,2013-02-23 22:55:00
4:55 PM,33.1,26.1,75,29.77,10.0,East,6.9,-,N/A,,Partly Cloudy,90,2013-02-23 23:55:00
5:55 PM,30.9,26.1,82,29.79,10.0,East,9.2,-,N/A,,Clear,80,2013-02-24 00:55:00
6:55 PM,30.0,25.0,82,29.82,10.0,Calm,Calm,-,N/A,,Clear,0,2013-02-24 01:55:00
7:55 PM,27.0,24.1,89,29.83,10.0,NE,5.8,-,N/A,,Mostly Cloudy,50,2013-02-24 02:55:00
8:55 PM,27.0,24.1,89,29.84,10.0,NE,8.1,-,N/A,,Overcast,50,2013-02-24 03:55:00
9:55 PM,24.1,21.9,91,29.86,10.0,Calm,Calm,-,N/A,,Mostly Cloudy,0,2013-02-24 04:55:00
10:55 PM,21.9,19.9,92,29.86,10.0,ENE,5.8,-,N/A,,Partly Cloudy,60,2013-02-24 05:55:00
11:55 PM,23.0,21.0,92,29.87,10.0,Calm,Calm,-,N/A,,Mostly Cloudy,0,2013-02-24 06:55:00